Location: Sternwarte_Laufen
(47.9344°N, 12.9346°E)
Time: 07:42:35
(UTC+01:00)

BlueWalker 3 - Pass Details

Date: 10 February 2023
Orbit: 497 x 515 km, 53.2° (Epoch: 23 March)

Event Time Altitude Azimuth Distance (km) Brightness Sun altitude
Rises 18:57:44 0° 296° (WNW) 2,605 6.7 -16.4°
Reaches altitude 10° 18:59:56 10° 292° (WNW) 1,721 5.7 -16.8°
Maximum altitude 19:03:45 55° 215° (SW) 616 2.5 -17.4°
Enters shadow 19:05:54 24° 146° (SE) 1,099 3.3 -17.8°
Exits shadow 19:38:56 -63° 124° (SE) 11,934 8.9 -23.3°
